TimeEST,TemperatureF,Dew PointF,Humidity,Sea Level PressureIn,VisibilityMPH,Wind Direction,Wind SpeedMPH,Gust SpeedMPH,PrecipitationIn,Events,Conditions,WindDirDegrees,DateUTC
12:53 AM,28.9,10.9,47,29.84,10.0,NNW,6.9,-,N/A,,Mostly Cloudy,340,2013-02-17 05:53:00
1:53 AM,28.0,10.9,49,29.84,10.0,NNW,6.9,-,N/A,,Mostly Cloudy,340,2013-02-17 06:53:00
2:53 AM,26.1,12.0,55,29.85,10.0,NNW,6.9,-,N/A,,Clear,330,2013-02-17 07:53:00
3:53 AM,24.1,12.9,62,29.84,10.0,NW,4.6,-,N/A,,Clear,310,2013-02-17 08:53:00
4:53 AM,23.0,15.1,72,29.84,10.0,WNW,5.8,-,N/A,,Clear,300,2013-02-17 09:53:00
5:53 AM,23.0,10.0,58,29.85,10.0,WNW,6.9,-,N/A,,Clear,290,2013-02-17 10:53:00
6:53 AM,21.9,8.1,55,29.86,10.0,NW,8.1,-,N/A,,Clear,320,2013-02-17 11:53:00
7:53 AM,24.1,8.1,51,29.89,10.0,NW,8.1,-,N/A,,Clear,310,2013-02-17 12:53:00
8:53 AM,25.0,9.0,51,29.89,10.0,NW,15.0,23.0,N/A,,Clear,320,2013-02-17 13:53:00
9:53 AM,28.0,10.9,49,29.90,10.0,NW,18.4,27.6,N/A,,Clear,320,2013-02-17 14:53:00
10:53 AM,28.0,10.0,47,29.92,10.0,NW,18.4,25.3,N/A,,Mostly Cloudy,310,2013-02-17 15:53:00
11:53 AM,28.9,9.0,43,29.92,10.0,WNW,17.3,29.9,N/A,,Mostly Cloudy,300,2013-02-17 16:53:00
12:53 PM,28.0,8.1,43,29.91,10.0,NW,13.8,28.8,N/A,,Mostly Cloudy,310,2013-02-17 17:53:00
1:53 PM,28.9,6.1,38,29.91,10.0,WNW,20.7,32.2,N/A,,Mostly Cloudy,290,2013-02-17 18:53:00
2:53 PM,28.0,3.9,36,29.93,10.0,WNW,23.0,33.4,N/A,,Mostly Cloudy,290,2013-02-17 19:53:00
3:53 PM,26.1,7.0,44,29.96,10.0,WNW,16.1,25.3,N/A,,Scattered Clouds,300,2013-02-17 20:53:00
4:53 PM,26.1,9.0,49,29.98,10.0,NW,19.6,28.8,N/A,,Overcast,310,2013-02-17 21:53:00
5:53 PM,24.1,10.0,55,30.02,10.0,WNW,18.4,27.6,N/A,,Partly Cloudy,290,2013-02-17 22:53:00
6:53 PM,24.1,6.1,46,30.06,10.0,WNW,17.3,29.9,N/A,,Scattered Clouds,290,2013-02-17 23:53:00
7:53 PM,23.0,5.0,46,30.07,10.0,WNW,13.8,25.3,N/A,,Clear,300,2013-02-18 00:53:00
8:53 PM,23.0,3.9,44,30.11,10.0,WNW,17.3,23.0,N/A,,Clear,290,2013-02-18 01:53:00
9:53 PM,21.9,1.9,42,30.15,10.0,WNW,18.4,25.3,N/A,,Clear,300,2013-02-18 02:53:00
10:53 PM,21.0,1.9,44,30.17,10.0,WNW,15.0,23.0,N/A,,Clear,300,2013-02-18 03:53:00